Time,TemperatureF,DewpointF,PressureIn,WindDirection,WindDirectionDegrees,WindSpeedMPH,WindSpeedGustMPH,Humidity,HourlyPrecipIn,Conditions,Clouds,dailyrainin,SoftwareType,DateUTC
2013-01-11 00:03:00,41.5,32.8,30.22,NW,326,9.0,15.0,71,0.00,,,-99.99,VWS V9.05,2013-01-11 08:03:00,
2013-01-11 00:10:00,41.7,33.7,30.22,NW,311,9.0,20.0,73,0.00,,,-99.99,VWS V9.05,2013-01-11 08:10:00,
2013-01-11 00:17:00,41.8,33.1,30.22,NW,308,10.0,23.0,71,0.00,,,-99.99,VWS V9.05,2013-01-11 08:17:00,
2013-01-11 00:24:00,41.9,33.5,30.22,NW,325,11.0,22.0,72,0.00,,,-99.99,VWS V9.05,2013-01-11 08:24:00,
2013-01-11 00:33:00,42.0,33.6,30.21,NW,317,14.0,25.0,72,0.00,,,-99.99,VWS V9.05,2013-01-11 08:33:00,
2013-01-11 00:40:00,42.2,33.8,30.22,NW,318,10.0,23.0,72,0.00,,,-99.99,VWS V9.05,2013-01-11 08:40:00,
2013-01-11 00:47:00,42.3,33.9,30.22,NW,315,15.0,25.0,72,0.00,,,-99.99,VWS V9.05,2013-01-11 08:47:00,
2013-01-11 00:54:00,42.3,33.6,30.22,NW,323,14.0,25.0,71,0.00,,,-99.99,VWS V9.05,2013-01-11 08:54:00,
2013-01-11 01:03:00,42.2,33.8,30.22,NW,326,8.0,18.0,72,0.00,,,-99.99,VWS V9.05,2013-01-11 09:03:00,
2013-01-11 01:10:00,42.2,33.8,30.22,NW,322,10.0,22.0,72,0.00,,,-99.99,VWS V9.05,2013-01-11 09:10:00,
2013-01-11 01:17:00,42.1,34.1,30.22,NW,321,10.0,22.0,73,0.00,,,-99.99,VWS V9.05,2013-01-11 09:17:00,
2013-01-11 01:24:00,42.1,34.1,30.22,NW,309,11.0,23.0,73,0.00,,,-99.99,VWS V9.05,2013-01-11 09:24:00,
2013-01-11 01:33:00,41.9,33.9,30.22,NW,320,12.0,23.0,73,0.00,,,-99.99,VWS V9.05,2013-01-11 09:33:00,
2013-01-11 01:40:00,41.9,33.9,30.22,NW,314,10.0,17.0,73,0.00,,,-99.99,VWS V9.05,2013-01-11 09:40:00,
2013-01-11 01:47:00,42.1,34.4,30.22,NW,324,11.0,19.0,74,0.00,,,-99.99,VWS V9.05,2013-01-11 09:47:00,
2013-01-11 01:54:00,41.8,33.8,30.23,NW,318,12.0,19.0,73,0.00,,,-99.99,VWS V9.05,2013-01-11 09:54:00,
2013-01-11 02:03:00,41.7,33.3,30.22,NW,322,12.0,20.0,72,0.00,,,-99.99,VWS V9.05,2013-01-11 10:03:00,
2013-01-11 02:10:00,41.9,33.5,30.23,NW,324,10.0,20.0,72,0.00,,,-99.99,VWS V9.05,2013-01-11 10:10:00,
2013-01-11 02:17:00,41.9,33.9,30.22,NW,317,10.0,20.0,73,0.00,,,-99.99,VWS V9.05,2013-01-11 10:17:00,
2013-01-11 02:24:00,41.9,34.2,30.23,NW,315,8.0,14.0,74,0.00,,,-99.99,VWS V9.05,2013-01-11 10:24:00,
2013-01-11 02:33:00,41.9,33.9,30.23,WNW,300,11.0,21.0,73,0.00,,,-99.99,VWS V9.05,2013-01-11 10:33:00,
2013-01-11 02:40:00,41.8,33.8,30.22,WNW,303,9.0,14.0,73,0.00,,,-99.99,VWS V9.05,2013-01-11 10:40:00,
2013-01-11 02:47:00,41.8,33.8,30.22,NW,308,15.0,15.0,73,0.00,,,-99.99,VWS V9.05,2013-01-11 10:47:00,
2013-01-11 02:54:00,41.8,33.5,30.22,NW,304,11.0,18.0,72,0.00,,,-99.99,VWS V9.05,2013-01-11 10:54:00,
2013-01-11 03:03:00,41.9,33.5,30.22,WNW,293,16.0,19.0,72,0.00,,,-99.99,VWS V9.05,2013-01-11 11:03:00,
2013-01-11 03:10:00,41.9,33.5,30.22,WNW,293,12.0,21.0,72,0.00,,,-99.99,VWS V9.05,2013-01-11 11:10:00,
2013-01-11 03:17:00,41.9,33.5,30.22,NW,315,13.0,21.0,72,0.00,,,-99.99,VWS V9.05,2013-01-11 11:17:00,
2013-01-11 03:24:00,41.7,33.0,30.23,NW,318,7.0,18.0,71,0.00,,,-99.99,VWS V9.05,2013-01-11 11:24:00,
2013-01-11 03:33:00,41.8,33.5,30.23,NW,325,12.0,19.0,72,0.00,,,-99.99,VWS V9.05,2013-01-11 11:33:00,
2013-01-11 03:40:00,41.8,33.5,30.23,NNW,338,9.0,21.0,72,0.00,,,-99.99,VWS V9.05,2013-01-11 11:40:00,
2013-01-11 03:47:00,41.6,32.9,30.23,WNW,295,13.0,21.0,71,0.00,,,-99.99,VWS V9.05,2013-01-11 11:47:00,
2013-01-11 03:54:00,41.6,32.9,30.22,NW,318,12.0,22.0,71,0.00,,,-99.99,VWS V9.05,2013-01-11 11:54:00,
2013-01-11 04:03:00,41.5,32.1,30.22,NW,311,21.0,22.0,69,0.00,,,-99.99,VWS V9.05,2013-01-11 12:03:00,
2013-01-11 04:10:00,41.5,32.5,30.22,WNW,302,12.0,22.0,70,0.00,,,-99.99,VWS V9.05,2013-01-11 12:10:00,
2013-01-11 04:17:00,41.5,32.1,30.22,NW,323,9.0,22.0,69,0.00,,,-99.99,VWS V9.05,2013-01-11 12:17:00,
2013-01-11 04:24:00,41.6,32.9,30.22,NW,326,8.0,21.0,71,0.00,,,-99.99,VWS V9.05,2013-01-11 12:24:00,
2013-01-11 04:33:00,41.5,32.1,30.22,NNW,327,9.0,21.0,69,0.00,,,-99.99,VWS V9.05,2013-01-11 12:33:00,
2013-01-11 04:40:00,41.3,31.9,30.23,NNW,337,6.0,12.0,69,0.00,,,-99.99,VWS V9.05,2013-01-11 12:40:00,
2013-01-11 04:47:00,41.2,31.8,30.23,NW,313,12.0,14.0,69,0.00,,,-99.99,VWS V9.05,2013-01-11 12:47:00,
2013-01-11 04:54:00,41.3,32.3,30.23,NW,318,8.0,19.0,70,0.00,,,-99.99,VWS V9.05,2013-01-11 12:54:00,
2013-01-11 05:03:00,41.3,32.6,30.23,NNW,327,12.0,16.0,71,0.00,,,-99.99,VWS V9.05,2013-01-11 13:03:00,
2013-01-11 05:10:00,41.4,32.7,30.23,NW,321,11.0,19.0,71,0.00,,,-99.99,VWS V9.05,2013-01-11 13:10:00,
2013-01-11 05:17:00,41.4,32.7,30.23,NNW,328,10.0,19.0,71,0.00,,,-99.99,VWS V9.05,2013-01-11 13:17:00,
2013-01-11 05:24:00,41.3,32.6,30.24,NW,322,7.0,15.0,71,0.00,,,-99.99,VWS V9.05,2013-01-11 13:24:00,
2013-01-11 05:33:00,41.1,32.8,30.24,NNW,342,8.0,15.0,72,0.00,,,-99.99,VWS V9.05,2013-01-11 13:33:00,
2013-01-11 05:40:00,40.6,31.2,30.25,NNW,344,3.0,5.0,69,0.00,,,-99.99,VWS V9.05,2013-01-11 13:40:00,
2013-01-11 05:47:00,40.5,31.5,30.25,North,349,4.0,6.0,70,0.00,,,-99.99,VWS V9.05,2013-01-11 13:47:00,
2013-01-11 05:54:00,40.4,33.1,30.25,NNW,342,5.0,7.0,75,0.00,,,-99.99,VWS V9.05,2013-01-11 13:54:00,
2013-01-11 06:03:00,40.2,33.2,30.25,NNW,345,7.0,7.0,76,0.00,,,-99.99,VWS V9.05,2013-01-11 14:03:00,
2013-01-11 06:10:00,39.9,32.0,30.25,North,0,4.0,9.0,73,0.00,,,-99.99,VWS V9.05,2013-01-11 14:10:00,
2013-01-11 06:17:00,39.7,32.1,30.26,North,0,4.0,9.0,74,0.00,,,-99.99,VWS V9.05,2013-01-11 14:17:00,
2013-01-11 06:24:00,39.7,32.4,30.26,North,356,6.0,7.0,75,0.00,,,-99.99,VWS V9.05,2013-01-11 14:24:00,
2013-01-11 06:33:00,39.7,32.8,30.26,North,352,5.0,9.0,76,0.00,,,-99.99,VWS V9.05,2013-01-11 14:33:00,
2013-01-11 06:40:00,39.8,32.9,30.26,NNW,334,8.0,9.0,76,0.00,,,-99.99,VWS V9.05,2013-01-11 14:40:00,
2013-01-11 06:47:00,39.9,33.0,30.26,NNW,339,6.0,11.0,76,0.00,,,-99.99,VWS V9.05,2013-01-11 14:47:00,
2013-01-11 06:54:00,39.7,32.4,30.26,NNW,331,5.0,11.0,75,0.00,,,-99.99,VWS V9.05,2013-01-11 14:54:00,
2013-01-11 07:03:00,39.5,32.6,30.26,NW,313,9.0,9.0,76,0.00,,,-99.99,VWS V9.05,2013-01-11 15:03:00,
2013-01-11 07:11:00,39.6,32.7,30.26,NW,324,8.0,12.0,76,0.00,,,-99.99,VWS V9.05,2013-01-11 15:11:00,
2013-01-11 07:17:00,39.7,32.8,30.26,NW,317,9.0,12.0,76,0.00,,,-99.99,VWS V9.05,2013-01-11 15:17:00,
2013-01-11 07:24:00,40.0,33.1,30.26,NW,326,8.0,11.0,76,0.00,,,-99.99,VWS V9.05,2013-01-11 15:24:00,
2013-01-11 07:33:00,40.0,33.1,30.26,NNW,335,6.0,11.0,76,0.00,,,-99.99,VWS V9.05,2013-01-11 15:33:00,
2013-01-11 07:41:00,39.9,33.0,30.27,NNW,342,4.0,7.0,76,0.00,,,-99.99,VWS V9.05,2013-01-11 15:41:00,
2013-01-11 07:47:00,39.8,32.9,30.27,NNW,343,6.0,8.0,76,0.00,,,-99.99,VWS V9.05,2013-01-11 15:47:00,
2013-01-11 07:54:00,39.8,32.9,30.27,NNW,339,5.0,8.0,76,0.00,,,-99.99,VWS V9.05,2013-01-11 15:54:00,
2013-01-11 08:03:00,39.8,32.9,30.27,NNW,339,4.0,7.0,76,0.00,,,-99.99,VWS V9.05,2013-01-11 16:03:00,
2013-01-11 08:10:00,39.9,33.3,30.28,NNW,339,4.0,7.0,77,0.00,,,-99.99,VWS V9.05,2013-01-11 16:10:00,
2013-01-11 08:17:00,39.9,33.0,30.27,NNW,339,2.0,7.0,76,0.00,,,-99.99,VWS V9.05,2013-01-11 16:17:00,
2013-01-11 08:24:00,39.9,33.0,30.28,NNW,339,5.0,6.0,76,0.00,,,-99.99,VWS V9.05,2013-01-11 16:24:00,
2013-01-11 08:33:00,40.1,32.8,30.28,NNW,339,3.0,7.0,75,0.00,,,-99.99,VWS V9.05,2013-01-11 16:33:00,
2013-01-11 08:40:00,40.6,33.3,30.28,NNW,337,2.0,4.0,75,0.00,,,-99.99,VWS V9.05,2013-01-11 16:40:00,
2013-01-11 08:47:00,41.1,33.1,30.28,NNW,336,2.0,7.0,73,0.00,,,-99.99,VWS V9.05,2013-01-11 16:47:00,
2013-01-11 08:54:00,41.5,32.8,30.28,NNW,338,1.0,7.0,71,0.00,,,-99.99,VWS V9.05,2013-01-11 16:54:00,
2013-01-11 09:03:00,41.9,33.2,30.28,ESE,111,1.0,3.0,71,0.00,,,-99.99,VWS V9.05,2013-01-11 17:03:00,
2013-01-11 09:10:00,42.1,33.0,30.28,ESE,111,4.0,4.0,70,0.00,,,-99.99,VWS V9.05,2013-01-11 17:10:00,
2013-01-11 09:17:00,42.3,33.2,30.28,East,98,3.0,5.0,70,0.00,,,-99.99,VWS V9.05,2013-01-11 17:17:00,
2013-01-11 09:24:00,42.4,33.3,30.28,North,351,0.0,9.0,70,0.00,,,-99.99,VWS V9.05,2013-01-11 17:24:00,
2013-01-11 09:33:00,42.7,33.6,30.28,North,353,0.0,9.0,70,0.00,,,-99.99,VWS V9.05,2013-01-11 17:33:00,
2013-01-11 09:40:00,42.8,34.1,30.28,North,353,0.0,1.0,71,0.00,,,-99.99,VWS V9.05,2013-01-11 17:40:00,
2013-01-11 09:47:00,43.1,34.7,30.28,North,353,1.0,2.0,72,0.00,,,-99.99,VWS V9.05,2013-01-11 17:47:00,
2013-01-11 09:54:00,43.4,34.3,30.28,North,352,0.0,3.0,70,0.00,,,-99.99,VWS V9.05,2013-01-11 17:54:00,
2013-01-11 10:03:00,43.6,34.1,30.28,North,353,1.0,4.0,69,0.00,,,-99.99,VWS V9.05,2013-01-11 18:03:00,
2013-01-11 10:10:00,43.7,34.2,30.28,North,359,5.0,6.0,69,0.00,,,-99.99,VWS V9.05,2013-01-11 18:10:00,
2013-01-11 10:17:00,44.0,34.1,30.28,North,359,4.0,6.0,68,0.00,,,-99.99,VWS V9.05,2013-01-11 18:17:00,
2013-01-11 10:24:00,44.3,33.3,30.28,NNW,333,7.0,7.0,65,0.00,,,-99.99,VWS V9.05,2013-01-11 18:24:00,
2013-01-11 10:33:00,45.0,33.6,30.28,NW,318,14.0,15.0,64,0.00,,,-99.99,VWS V9.05,2013-01-11 18:33:00,
2013-01-11 10:40:00,45.2,33.4,30.28,NW,305,9.0,13.0,63,0.00,,,-99.99,VWS V9.05,2013-01-11 18:40:00,
2013-01-11 10:47:00,45.7,33.4,30.27,NNW,332,5.0,13.0,62,0.00,,,-99.99,VWS V9.05,2013-01-11 18:47:00,
2013-01-11 10:54:00,45.9,33.2,30.27,NNW,329,6.0,16.0,61,0.00,,,-99.99,VWS V9.05,2013-01-11 18:54:00,
2013-01-11 11:03:00,46.5,33.8,30.26,WNW,289,13.0,18.0,61,0.00,,,-99.99,VWS V9.05,2013-01-11 19:03:00,
2013-01-11 11:10:00,46.9,33.8,30.26,NW,309,9.0,18.0,60,0.00,,,-99.99,VWS V9.05,2013-01-11 19:10:00,
2013-01-11 11:17:00,46.9,33.3,30.25,NW,310,6.0,18.0,59,0.00,,,-99.99,VWS V9.05,2013-01-11 19:17:00,
2013-01-11 11:24:00,47.2,34.0,30.25,NW,316,15.0,15.0,60,0.00,,,-99.99,VWS V9.05,2013-01-11 19:24:00,
2013-01-11 11:33:00,47.1,33.5,30.25,NW,326,6.0,16.0,59,0.00,,,-99.99,VWS V9.05,2013-01-11 19:33:00,
2013-01-11 11:40:00,47.3,33.7,30.24,NW,313,12.0,13.0,59,0.00,,,-99.99,VWS V9.05,2013-01-11 19:40:00,
2013-01-11 11:47:00,47.5,33.5,30.24,WNW,302,9.0,17.0,58,0.00,,,-99.99,VWS V9.05,2013-01-11 19:47:00,
2013-01-11 11:54:00,47.3,32.4,30.23,NW,320,11.0,17.0,56,0.00,,,-99.99,VWS V9.05,2013-01-11 19:54:00,
2013-01-11 12:03:00,46.8,32.0,30.23,NNW,338,10.0,12.0,56,0.00,,,-99.99,VWS V9.05,2013-01-11 20:03:00,
2013-01-11 12:10:00,46.9,32.5,30.23,North,359,3.0,14.0,57,0.00,,,-99.99,VWS V9.05,2013-01-11 20:10:00,
2013-01-11 12:17:00,47.1,33.9,30.23,NW,312,14.0,19.0,60,0.00,,,-99.99,VWS V9.05,2013-01-11 20:17:00,
2013-01-11 12:24:00,47.3,32.8,30.22,NNW,343,7.0,13.0,57,0.00,,,-99.99,VWS V9.05,2013-01-11 20:24:00,
2013-01-11 12:33:00,47.6,33.6,30.22,NW,311,14.0,17.0,58,0.00,,,-99.99,VWS V9.05,2013-01-11 20:33:00,
2013-01-11 12:40:00,47.7,33.2,30.21,NNW,327,5.0,13.0,57,0.00,,,-99.99,VWS V9.05,2013-01-11 20:40:00,
2013-01-11 12:47:00,47.3,32.8,30.21,WNW,300,14.0,19.0,57,0.00,,,-99.99,VWS V9.05,2013-01-11 20:47:00,
2013-01-11 12:54:00,47.1,33.5,30.20,NW,317,7.0,22.0,59,0.00,,,-99.99,VWS V9.05,2013-01-11 20:54:00,
2013-01-11 13:03:00,47.0,33.8,30.20,NW,326,14.0,19.0,60,0.00,,,-99.99,VWS V9.05,2013-01-11 21:03:00,
2013-01-11 13:10:00,47.5,34.3,30.20,NNW,330,9.0,19.0,60,0.00,,,-99.99,VWS V9.05,2013-01-11 21:10:00,
2013-01-11 13:17:00,47.7,34.5,30.20,NW,321,15.0,21.0,60,0.00,,,-99.99,VWS V9.05,2013-01-11 21:17:00,
2013-01-11 13:24:00,48.5,34.8,30.20,NNW,338,9.0,16.0,59,0.00,,,-99.99,VWS V9.05,2013-01-11 21:24:00,
2013-01-11 13:33:00,48.9,35.2,30.19,NW,317,7.0,17.0,59,0.00,,,-99.99,VWS V9.05,2013-01-11 21:33:00,
2013-01-11 13:40:00,49.2,35.9,30.20,NW,310,5.0,11.0,60,0.00,,,-99.99,VWS V9.05,2013-01-11 21:40:00,
2013-01-11 13:47:00,49.5,35.8,30.20,NW,315,15.0,18.0,59,0.00,,,-99.99,VWS V9.05,2013-01-11 21:47:00,
2013-01-11 13:54:00,49.8,36.5,30.19,WNW,289,5.0,19.0,60,0.00,,,-99.99,VWS V9.05,2013-01-11 21:54:00,
2013-01-11 14:03:00,49.8,36.5,30.19,WNW,292,14.0,18.0,60,0.00,,,-99.99,VWS V9.05,2013-01-11 22:03:00,
2013-01-11 14:10:00,49.7,36.4,30.19,WNW,299,7.0,19.0,60,0.00,,,-99.99,VWS V9.05,2013-01-11 22:10:00,
2013-01-11 14:17:00,49.5,36.2,30.19,NW,323,9.0,19.0,60,0.00,,,-99.99,VWS V9.05,2013-01-11 22:17:00,
2013-01-11 14:24:00,49.3,36.4,30.19,WNW,290,15.0,18.0,61,0.00,,,-99.99,VWS V9.05,2013-01-11 22:24:00,
2013-01-11 14:33:00,49.4,36.5,30.19,WNW,285,8.0,19.0,61,0.00,,,-99.99,VWS V9.05,2013-01-11 22:33:00,
2013-01-11 14:40:00,49.3,36.4,30.19,WNW,287,14.0,14.0,61,0.00,,,-99.99,VWS V9.05,2013-01-11 22:40:00,
2013-01-11 14:47:00,49.2,36.3,30.18,NW,307,7.0,17.0,61,0.00,,,-99.99,VWS V9.05,2013-01-11 22:47:00,
2013-01-11 14:54:00,49.1,36.2,30.18,WNW,297,15.0,17.0,61,0.00,,,-99.99,VWS V9.05,2013-01-11 22:54:00,
2013-01-11 15:03:00,48.8,36.0,30.18,WNW,298,12.0,17.0,61,0.00,,,-99.99,VWS V9.05,2013-01-11 23:03:00,
2013-01-11 15:10:00,48.7,36.3,30.18,WNW,301,4.0,23.0,62,0.00,,,-99.99,VWS V9.05,2013-01-11 23:10:00,
2013-01-11 15:17:00,48.7,36.3,30.18,NW,315,9.0,23.0,62,0.00,,,-99.99,VWS V9.05,2013-01-11 23:17:00,
2013-01-11 15:24:00,48.9,36.5,30.18,WNW,293,12.0,20.0,62,0.00,,,-99.99,VWS V9.05,2013-01-11 23:24:00,
2013-01-11 15:33:00,48.8,36.4,30.17,West,279,10.0,20.0,62,0.00,,,-99.99,VWS V9.05,2013-01-11 23:33:00,
2013-01-11 15:40:00,48.6,36.6,30.17,WNW,302,9.0,14.0,63,0.00,,,-99.99,VWS V9.05,2013-01-11 23:40:00,
2013-01-11 15:47:00,48.3,36.3,30.17,West,280,11.0,21.0,63,0.00,,,-99.99,VWS V9.05,2013-01-11 23:47:00,
2013-01-11 15:54:00,47.8,36.2,30.17,NW,310,9.0,22.0,64,0.00,,,-99.99,VWS V9.05,2013-01-11 23:54:00,
2013-01-11 16:03:00,47.4,35.8,30.17,WNW,299,10.0,19.0,64,0.00,,,-99.99,VWS V9.05,2013-01-12 00:03:00,
2013-01-11 16:10:00,47.3,36.2,30.17,NW,307,9.0,19.0,65,0.00,,,-99.99,VWS V9.05,2013-01-12 00:10:00,
2013-01-11 16:17:00,47.1,36.0,30.17,WNW,287,14.0,19.0,65,0.00,,,-99.99,VWS V9.05,2013-01-12 00:17:00,
2013-01-11 16:24:00,46.8,35.7,30.17,WNW,300,10.0,18.0,65,0.00,,,-99.99,VWS V9.05,2013-01-12 00:24:00,
2013-01-11 16:33:00,46.6,35.5,30.17,NW,310,9.0,18.0,65,0.00,,,-99.99,VWS V9.05,2013-01-12 00:33:00,
2013-01-11 16:40:00,46.5,35.4,30.17,NW,309,9.0,14.0,65,0.00,,,-99.99,VWS V9.05,2013-01-12 00:40:00,
2013-01-11 16:47:00,46.3,35.6,30.16,WNW,290,12.0,16.0,66,0.00,,,-99.99,VWS V9.05,2013-01-12 00:47:00,
2013-01-11 16:54:00,46.1,35.4,30.16,NW,305,7.0,16.0,66,0.00,,,-99.99,VWS V9.05,2013-01-12 00:54:00,
2013-01-11 17:03:00,46.0,35.3,30.16,WNW,297,13.0,15.0,66,0.00,,,-99.99,VWS V9.05,2013-01-12 01:03:00,
2013-01-11 17:11:00,45.8,35.5,30.16,WNW,300,9.0,16.0,67,0.00,,,-99.99,VWS V9.05,2013-01-12 01:11:00,
2013-01-11 17:17:00,45.7,35.4,30.16,WNW,297,11.0,16.0,67,0.00,,,-99.99,VWS V9.05,2013-01-12 01:17:00,
2013-01-11 17:24:00,45.5,35.2,30.16,NW,304,12.0,14.0,67,0.00,,,-99.99,VWS V9.05,2013-01-12 01:24:00,
2013-01-11 17:33:00,45.5,35.2,30.16,NW,305,6.0,18.0,67,0.00,,,-99.99,VWS V9.05,2013-01-12 01:33:00,
2013-01-11 17:41:00,45.4,35.1,30.16,WNW,298,4.0,15.0,67,0.00,,,-99.99,VWS V9.05,2013-01-12 01:41:00,
2013-01-11 17:47:00,45.4,35.1,30.16,NW,304,13.0,19.0,67,0.00,,,-99.99,VWS V9.05,2013-01-12 01:47:00,
2013-01-11 17:54:00,45.4,35.5,30.16,NW,321,9.0,19.0,68,0.00,,,-99.99,VWS V9.05,2013-01-12 01:54:00,
2013-01-11 18:03:00,45.2,35.3,30.16,WNW,300,5.0,12.0,68,0.00,,,-99.99,VWS V9.05,2013-01-12 02:03:00,
2013-01-11 18:11:00,44.9,35.0,30.16,NW,325,6.0,13.0,68,0.00,,,-99.99,VWS V9.05,2013-01-12 02:11:00,
2013-01-11 18:17:00,44.9,35.0,30.16,NW,311,6.0,14.0,68,0.00,,,-99.99,VWS V9.05,2013-01-12 02:17:00,
2013-01-11 18:24:00,45.0,35.1,30.16,NW,309,8.0,14.0,68,0.00,,,-99.99,VWS V9.05,2013-01-12 02:24:00,
2013-01-11 18:33:00,45.1,35.2,30.16,NW,324,10.0,16.0,68,0.00,,,-99.99,VWS V9.05,2013-01-12 02:33:00,
2013-01-11 18:40:00,45.0,35.1,30.16,NW,309,8.0,12.0,68,0.00,,,-99.99,VWS V9.05,2013-01-12 02:40:00,
2013-01-11 18:47:00,45.1,35.2,30.17,NNW,327,5.0,17.0,68,0.00,,,-99.99,VWS V9.05,2013-01-12 02:47:00,
2013-01-11 18:54:00,44.9,35.0,30.16,NW,309,7.0,17.0,68,0.00,,,-99.99,VWS V9.05,2013-01-12 02:54:00,
2013-01-11 19:03:00,44.8,34.9,30.17,NNW,334,7.0,15.0,68,0.00,,,-99.99,VWS V9.05,2013-01-12 03:03:00,
2013-01-11 19:11:00,44.8,35.3,30.17,NW,324,7.0,15.0,69,0.00,,,-99.99,VWS V9.05,2013-01-12 03:11:00,
2013-01-11 19:17:00,44.7,35.2,30.16,NW,308,8.0,15.0,69,0.00,,,-99.99,VWS V9.05,2013-01-12 03:17:00,
2013-01-11 19:24:00,44.6,34.7,30.16,NW,310,8.0,14.0,68,0.00,,,-99.99,VWS V9.05,2013-01-12 03:24:00,
2013-01-11 19:33:00,44.6,35.1,30.16,NW,315,7.0,14.0,69,0.00,,,-99.99,VWS V9.05,2013-01-12 03:33:00,
2013-01-11 19:41:00,44.5,35.0,30.16,NW,326,6.0,10.0,69,0.00,,,-99.99,VWS V9.05,2013-01-12 03:41:00,
2013-01-11 19:47:00,44.4,34.9,30.16,NNW,335,3.0,10.0,69,0.00,,,-99.99,VWS V9.05,2013-01-12 03:47:00,
2013-01-11 19:54:00,44.4,34.9,30.16,NW,305,7.0,14.0,69,0.00,,,-99.99,VWS V9.05,2013-01-12 03:54:00,
2013-01-11 20:03:00,44.2,35.0,30.16,NW,305,6.0,10.0,70,0.00,,,-99.99,VWS V9.05,2013-01-12 04:03:00,
2013-01-11 20:11:00,44.2,34.7,30.16,NNW,332,4.0,14.0,69,0.00,,,-99.99,VWS V9.05,2013-01-12 04:11:00,
2013-01-11 20:17:00,44.2,34.7,30.16,WNW,291,12.0,14.0,69,0.00,,,-99.99,VWS V9.05,2013-01-12 04:17:00,
2013-01-11 20:24:00,44.1,35.0,30.16,WNW,297,8.0,12.0,70,0.00,,,-99.99,VWS V9.05,2013-01-12 04:24:00,
2013-01-11 20:33:00,44.1,35.0,30.16,NW,304,10.0,13.0,70,0.00,,,-99.99,VWS V9.05,2013-01-12 04:33:00,
2013-01-11 20:41:00,44.1,35.0,30.17,WNW,296,8.0,12.0,70,0.00,,,-99.99,VWS V9.05,2013-01-12 04:41:00,
2013-01-11 20:47:00,43.9,34.8,30.17,WNW,303,8.0,15.0,70,0.00,,,-99.99,VWS V9.05,2013-01-12 04:47:00,
2013-01-11 20:54:00,44.1,35.3,30.17,NW,313,9.0,15.0,71,0.00,,,-99.99,VWS V9.05,2013-01-12 04:54:00,
2013-01-11 21:03:00,44.0,35.2,30.17,NW,315,9.0,12.0,71,0.00,,,-99.99,VWS V9.05,2013-01-12 05:03:00,
2013-01-11 21:04:00,44.0,34.9,30.17,NW,315,6.0,12.0,70,0.00,,,-99.99,VWS V9.05,2013-01-12 05:04:00,
2013-01-11 21:11:00,43.9,35.1,30.18,NNW,340,7.0,12.0,71,0.00,,,-99.99,VWS V9.05,2013-01-12 05:11:00,
2013-01-11 21:17:00,44.0,35.2,30.18,NNW,329,6.0,12.0,71,0.00,,,-99.99,VWS V9.05,2013-01-12 05:17:00,
2013-01-11 21:21:00,44.1,35.3,30.18,NNW,332,5.0,8.0,71,0.00,,,-99.99,VWS V9.05,2013-01-12 05:21:00,
2013-01-11 21:33:00,43.8,35.0,30.18,NNW,343,6.0,9.0,71,0.00,,,-99.99,VWS V9.05,2013-01-12 05:33:00,
2013-01-11 21:40:00,43.8,35.0,30.18,NNW,340,4.0,9.0,71,0.00,,,-99.99,VWS V9.05,2013-01-12 05:40:00,
2013-01-11 21:47:00,43.8,35.4,30.18,NNW,342,3.0,9.0,72,0.00,,,-99.99,VWS V9.05,2013-01-12 05:47:00,
2013-01-11 21:54:00,44.3,37.2,30.18,NNW,344,0.0,9.0,76,0.00,,,-99.99,VWS V9.05,2013-01-12 05:54:00,
2013-01-11 22:03:00,45.4,38.3,30.18,NNW,344,0.0,2.0,76,0.00,,,-99.99,VWS V9.05,2013-01-12 06:03:00,
2013-01-11 22:10:00,45.7,39.6,30.18,NNW,344,0.0,2.0,79,0.00,,,-99.99,VWS V9.05,2013-01-12 06:10:00,
2013-01-11 22:17:00,46.0,39.5,30.18,NNW,344,2.0,2.0,78,0.00,,,-99.99,VWS V9.05,2013-01-12 06:17:00,
2013-01-11 22:24:00,44.9,38.1,30.19,North,0,0.0,4.0,77,0.00,,,-99.99,VWS V9.05,2013-01-12 06:24:00,
2013-01-11 22:33:00,45.4,39.0,30.18,North,0,0.0,4.0,78,0.00,,,-99.99,VWS V9.05,2013-01-12 06:33:00,
2013-01-11 22:40:00,46.1,40.0,30.18,ESE,122,0.0,0.0,79,0.00,,,-99.99,VWS V9.05,2013-01-12 06:40:00,
2013-01-11 22:47:00,46.5,40.3,30.18,ESE,122,0.0,1.0,79,0.00,,,-99.99,VWS V9.05,2013-01-12 06:47:00,
2013-01-11 22:54:00,46.5,40.7,30.18,ESE,122,0.0,1.0,80,0.00,,,-99.99,VWS V9.05,2013-01-12 06:54:00,
2013-01-11 23:03:00,46.2,40.1,30.18,ESE,123,2.0,3.0,79,0.00,,,-99.99,VWS V9.05,2013-01-12 07:03:00,
2013-01-11 23:10:00,45.7,39.6,30.18,ESE,123,1.0,3.0,79,0.00,,,-99.99,VWS V9.05,2013-01-12 07:10:00,
2013-01-11 23:17:00,45.2,39.1,30.19,SW,223,1.0,4.0,79,0.00,,,-99.99,VWS V9.05,2013-01-12 07:17:00,
2013-01-11 23:24:00,44.2,38.1,30.19,NW,310,4.0,7.0,79,0.00,,,-99.99,VWS V9.05,2013-01-12 07:24:00,
2013-01-11 23:33:00,42.7,36.3,30.19,NNW,331,6.0,8.0,78,0.00,,,-99.99,VWS V9.05,2013-01-12 07:33:00,
2013-01-11 23:40:00,42.0,36.0,30.19,NNW,343,4.0,5.0,79,0.00,,,-99.99,VWS V9.05,2013-01-12 07:40:00,
2013-01-11 23:47:00,41.8,36.1,30.19,NNW,338,7.0,7.0,80,0.00,,,-99.99,VWS V9.05,2013-01-12 07:47:00,
2013-01-11 23:54:00,41.6,35.6,30.19,NNW,340,4.0,9.0,79,0.00,,,-99.99,VWS V9.05,2013-01-12 07:54:00,